Back to catalog

STARLINK-4343

AliveCommunicationsSSO
NORAD 53050·PAYLOAD·🇺🇸 United States

Launched Jul 11, 2022 from Vandenberg Space Force Base

Loading…

Next Passes (next 24 hours)

TLE

FreshSource: CelesTrak SupGP

Epoch: Sep 14, 2026, 20:37 UTC

1 53050C 22077H   26257.85951389  .00069561  00000+0  21594-2 0  2577
2 53050  97.2857  73.7009 0001381  86.1946   6.5802 15.33403413    15

Track STARLINK-4343 in real time with AllMySat

Download on the App Store